Location: Bergheim
(50.9593°N, 6.6400°E)
Time: 19:53:32
(UTC+01:00)

ISS - Pass Details

Date: 26 November 2019
Orbit: 411 x 421 km, 51.6° (Epoch: 07 December)

Event Time Altitude Azimuth Distance (km) Brightness Sun altitude
Rises 20:00:46 0° 265° (W) 2,360 1.1 -31.8°
Reaches altitude 10° 20:02:52 10° 267° (W) 1,499 -0.1 -32.1°
Enters shadow 20:02:57 11° 267° (W) 1,463 -0.2 -32.1°
